Weather History for Evergreen, AL

Change the Weather History Date:

Wednesday, October 3, 2012

  Actual Average (KPRN) Record (KPRN)
Temperature  
Mean Temperature 64 °F -  
Max Temperature 77 °F 82 °F 94 °F (1986)
Min Temperature 54 °F 57 °F 41 °F (1974)
Growing Degree Days 14 (Base 50)    
Moisture  
Dew Point 57 °F    
Average Humidity 80    
Maximum Humidity 93    
Minimum Humidity 56    
Precipitation  
Precipitation 0.00 in - - ()
Sea Level Pressure  
Sea Level Pressure 30.12 in    
Wind  
Wind Speed 1 mph (ESE)    
Max Wind Speed 7 mph    
Max Gust Speed -    
Visibility 7 miles    
Events      
Averages and records for this station are not official NWS values.
T = Trace of Precipitation, MM = Missing Value Source: NWS Daily Summary

Daily Weather History Graph

Daily Weather History Graph

Search for Another Location

Airport:

Trip Planner

Search our weather history database for the weather conditions in past years. The results will help you decide how hot, cold, wet, or windy it might be!

Date:

Astronomy

Oct. 03, 2012 Rise Set
Actual Time 6:43 AM CDT 6:30 PM CDT
Civil Twilight 6:19 AM CDT 6:54 PM CDT
Nautical Twilight 5:51 AM CDT 7:22 PM CDT
Astronomical Twilight 5:22 AM CDT 7:50 PM CDT
Moon 8:37 PM CDT (10/3) 9:51 AM CDT (10/3)
Length of Visible Light 12h 35m
Length of Day
11h 46m
Waning Gibbous, 88% of the Moon is Illuminated
Oct 3
Waning Gibbous
Oct 8
Last Quarter
Oct 15
New
Oct 21
First Quarter
Oct 29
Full

Hourly Weather History & Observations

Time (CDT) Temp. Dew Point Humidity Pressure Visibility Wind Dir Wind Speed Gust Speed Precip Events Conditions
12:53 AM 57.0 °F 55.0 °F 93% 30.04 in 5.0 mi Calm Calm - N/A   Clear
1:53 AM 55.9 °F 54.0 °F 93% 30.05 in 4.0 mi Calm Calm - N/A   Clear
2:53 AM 55.9 °F 53.1 °F 90% 30.05 in 6.0 mi Calm Calm - N/A   Clear
3:53 AM 55.0 °F 53.1 °F 93% 30.04 in 4.0 mi Calm Calm - N/A   Clear
4:53 AM 55.0 °F 52.0 °F 89% 30.06 in 6.0 mi Calm Calm - N/A   Clear
5:53 AM 54.0 °F 52.0 °F 93% 30.08 in 6.0 mi Calm Calm - N/A   Clear
6:53 AM 55.0 °F 52.0 °F 89% 30.10 in 6.0 mi Calm Calm - N/A   Clear
7:53 AM 57.0 °F 54.0 °F 89% 30.12 in 7.0 mi Calm Calm - N/A   Clear
8:53 AM 62.1 °F 57.0 °F 84% 30.14 in 10.0 mi Calm Calm - N/A   Clear
9:53 AM 68.0 °F 59.0 °F 73% 30.15 in 10.0 mi Calm Calm - N/A   Clear
10:53 AM 73.0 °F 60.1 °F 64% 30.15 in 10.0 mi Variable 4.6 mph - N/A   Clear
11:53 AM 75.0 °F 59.0 °F 57% 30.14 in 10.0 mi East 3.5 mph - N/A   Clear
12:53 PM 75.9 °F 59.0 °F 56% 30.13 in 10.0 mi Variable 3.5 mph - N/A   Clear
1:53 PM 75.9 °F 59.0 °F 56% 30.11 in 10.0 mi East 3.5 mph - N/A   Clear
2:53 PM 75.9 °F 60.1 °F 58% 30.11 in 10.0 mi East 5.8 mph - N/A   Clear
3:53 PM 75.0 °F 60.1 °F 60% 30.11 in 10.0 mi ESE 6.9 mph - N/A   Clear
4:53 PM 75.0 °F 60.1 °F 60% 30.12 in 10.0 mi ESE 4.6 mph - N/A   Clear
5:53 PM 72.0 °F 61.0 °F 68% 30.13 in 10.0 mi Calm Calm - N/A   Clear
6:53 PM 66.0 °F 62.1 °F 87% 30.14 in 10.0 mi Calm Calm - N/A   Clear
7:53 PM 64.0 °F 61.0 °F 90% 30.15 in 5.0 mi Calm Calm - N/A   Clear
8:53 PM 62.1 °F 60.1 °F 93% 30.17 in 6.0 mi Calm Calm - N/A   Clear
9:53 PM 62.1 °F 59.0 °F 90% 30.17 in 3.0 mi Calm Calm - N/A   Clear
10:53 PM 60.1 °F 57.9 °F 93% 30.17 in 3.0 mi Calm Calm - N/A   Clear
11:53 PM 59.0 °F 57.0 °F 93% 30.18 in 3.0 mi Calm Calm - N/A   Clear